sat.trackr.live / text

‹ back to catalog

YAOGAN-43 01F

NORAD 60463 · 2024-148F

PAYLOAD ACTIVE UNKNOWN

§ Identity

Operator
Country
PRC
Launch date
2024-08-16
Launch site
XICLF
Launch vehicle
Mass (kg)
RCS (m²)

External: N2YO · Heavens-Above · Gunter

§ Orbital elements

Epoch: 2026-05-25T02:48:06.539904Z

Period
94.00 min
Inclination
34.9924°
Eccentricity
0.0008030
Mean motion
15.31864822 rev/d
Perigee alt
464.7 km
Apogee alt
475.7 km
Semi-major
6,848.4 km
B*
4.2221e-4
RAAN
295.4036°
Arg perigee
3.6824°
Mean anomaly
356.3951°
Rev number
9,874

§ Raw data

YAOGAN-43 01F1 60463U 24148F   26145.11674236  .00013327  00000+0  42221-3 0  99952 60463  34.9924 295.4036 0008030   3.6824 356.3951 15.31864822 98745

JSON: /api/v1/satellites/60463 · /tle

For live sub-satellite position, see the globe view (requires WebGL).

§ Visibility from observer

Set your observer location to see the next 7 days of passes ≥ 10°. The values pass through the URL so the page stays shareable.

No JS? Fill the form by hand. The geolocation button needs JavaScript.